Year,Month,Day,Hour,Minute,Value (Times are PST for windspeed in km/hr)
2015,09,13,00,00,18.40
2015,09,13,00,01,15.70
2015,09,13,00,02,22.70
2015,09,13,00,03,25.30
2015,09,13,00,04,21.50
2015,09,13,00,05,22.20
2015,09,13,00,06,14.20
2015,09,13,00,07,12.80
2015,09,13,00,08,14.80
2015,09,13,00,09,19.10
2015,09,13,00,10,16.70
2015,09,13,00,11,19.10
2015,09,13,00,12,24.20
2015,09,13,00,13,22.40
2015,09,13,00,14,21.90
2015,09,13,00,15,16.50
2015,09,13,00,16,17.20
2015,09,13,00,17,21.30
2015,09,13,00,18,18.90
2015,09,13,00,19,17.60
2015,09,13,00,20,17.20
2015,09,13,00,21,16.40
2015,09,13,00,22,17.40
2015,09,13,00,23,17.00
2015,09,13,00,24,17.00
2015,09,13,00,25,20.40
2015,09,13,00,26,18.10
2015,09,13,00,27,21.50
2015,09,13,00,28,13.60
2015,09,13,00,29,13.80
2015,09,13,00,30,11.60
2015,09,13,00,31,15.40
2015,09,13,00,32,11.40
2015,09,13,00,33,12.90
2015,09,13,00,34,11.40
2015,09,13,00,35,14.30
2015,09,13,00,36,13.50
2015,09,13,00,37,10.20
2015,09,13,00,38,15.10
2015,09,13,00,39,14.80
2015,09,13,00,40,17.10
2015,09,13,00,41,17.70
2015,09,13,00,42,19.80
2015,09,13,00,43,20.60
2015,09,13,00,44,20.60
2015,09,13,00,45,23.00
2015,09,13,00,46,16.00
2015,09,13,00,47,23.10
2015,09,13,00,48,16.10
2015,09,13,00,49,16.00
2015,09,13,00,50,17.20
2015,09,13,00,51,15.70
2015,09,13,00,52,19.00
2015,09,13,00,53,14.40
2015,09,13,00,54,22.70
2015,09,13,00,55,16.90
2015,09,13,00,56,14.10
2015,09,13,00,57,20.30
2015,09,13,00,58,16.20
2015,09,13,00,59,18.50
2015,09,13,01,00,18.50
2015,09,13,01,01,20.80
2015,09,13,01,02,16.70
2015,09,13,01,03,15.30
2015,09,13,01,04,16.00
2015,09,13,01,05,16.00
2015,09,13,01,06,16.90
2015,09,13,01,07,17.00
2015,09,13,01,08,18.10
2015,09,13,01,09,21.30
2015,09,13,01,10,18.10
2015,09,13,01,11,14.10
2015,09,13,01,12,19.00
2015,09,13,01,13,13.50
2015,09,13,01,14,12.80
2015,09,13,01,15,16.80
2015,09,13,01,16,18.90
2015,09,13,01,17,15.10
2015,09,13,01,18,10.00
2015,09,13,01,19,13.90
2015,09,13,01,20,15.30
2015,09,13,01,21,11.10
2015,09,13,01,22,9.20
2015,09,13,01,23,10.80
2015,09,13,01,24,10.70
2015,09,13,01,25,14.10
2015,09,13,01,26,13.90
2015,09,13,01,27,14.40
2015,09,13,01,28,18.30
2015,09,13,01,29,18.90
2015,09,13,01,30,14.20
2015,09,13,01,31,15.70
2015,09,13,01,32,13.70
2015,09,13,01,33,10.70
2015,09,13,01,34,8.00
2015,09,13,01,35,11.40
2015,09,13,01,36,11.90
2015,09,13,01,37,13.60
2015,09,13,01,38,14.50
2015,09,13,01,39,18.50
2015,09,13,01,40,14.60
2015,09,13,01,41,7.90
2015,09,13,01,42,15.70
2015,09,13,01,43,17.00
2015,09,13,01,44,13.30
2015,09,13,01,45,12.00
2015,09,13,01,46,10.10
2015,09,13,01,47,6.90
2015,09,13,01,48,12.20
2015,09,13,01,49,15.20
2015,09,13,01,50,14.20
2015,09,13,01,51,11.50
2015,09,13,01,52,10.80
2015,09,13,01,53,14.30
2015,09,13,01,54,15.20
2015,09,13,01,55,9.50
2015,09,13,01,56,18.60
2015,09,13,01,57,23.60
2015,09,13,01,58,18.10
2015,09,13,01,59,14.30
2015,09,13,02,00,12.30
2015,09,13,02,01,16.00
2015,09,13,02,02,16.60
2015,09,13,02,03,17.40
2015,09,13,02,04,16.10
2015,09,13,02,05,10.00
2015,09,13,02,06,9.70
2015,09,13,02,07,11.60
2015,09,13,02,08,13.90
2015,09,13,02,09,18.20
2015,09,13,02,10,13.80
2015,09,13,02,11,12.40
2015,09,13,02,12,12.30
2015,09,13,02,13,10.50
2015,09,13,02,14,11.30
2015,09,13,02,15,18.40
2015,09,13,02,16,14.90
2015,09,13,02,17,16.10
2015,09,13,02,18,14.50
2015,09,13,02,19,14.20
2015,09,13,02,20,12.70
2015,09,13,02,21,11.10
2015,09,13,02,22,10.30
2015,09,13,02,23,11.40
2015,09,13,02,24,9.90
2015,09,13,02,25,16.00
2015,09,13,02,26,15.00
2015,09,13,02,27,11.20
2015,09,13,02,28,15.00
2015,09,13,02,29,17.20
2015,09,13,02,30,21.50
2015,09,13,02,31,13.80
2015,09,13,02,32,17.60
2015,09,13,02,33,18.50
2015,09,13,02,34,18.40
2015,09,13,02,35,22.60
2015,09,13,02,36,24.80
2015,09,13,02,37,20.10
2015,09,13,02,38,17.10
2015,09,13,02,39,20.00
2015,09,13,02,40,19.00
2015,09,13,02,41,24.70
2015,09,13,02,42,16.60
2015,09,13,02,43,17.30
2015,09,13,02,44,22.10
2015,09,13,02,45,18.00
2015,09,13,02,46,21.10
2015,09,13,02,47,20.10
2015,09,13,02,48,22.50
2015,09,13,02,49,21.60
2015,09,13,02,50,19.70
2015,09,13,02,51,22.10
2015,09,13,02,52,18.90
2015,09,13,02,53,17.90
2015,09,13,02,54,17.10
2015,09,13,02,55,17.00
2015,09,13,02,56,19.40
2015,09,13,02,57,19.10
2015,09,13,02,58,14.40
2015,09,13,02,59,15.60
2015,09,13,03,00,14.30
2015,09,13,03,01,16.70
2015,09,13,03,02,18.60
2015,09,13,03,03,23.80
2015,09,13,03,04,17.00
2015,09,13,03,05,16.00
2015,09,13,03,06,21.10
2015,09,13,03,07,18.00
2015,09,13,03,08,18.20
2015,09,13,03,09,12.50
2015,09,13,03,10,19.40
2015,09,13,03,11,19.90
2015,09,13,03,12,23.20
2015,09,13,03,13,24.60
2015,09,13,03,14,21.40
2015,09,13,03,15,19.00
2015,09,13,03,16,21.30
2015,09,13,03,17,26.50
2015,09,13,03,18,21.40
2015,09,13,03,19,22.50
2015,09,13,03,20,16.90
2015,09,13,03,21,20.10
2015,09,13,03,22,19.70
2015,09,13,03,23,20.50
2015,09,13,03,24,21.80
2015,09,13,03,25,21.60
2015,09,13,03,26,18.40
2015,09,13,03,27,19.60
2015,09,13,03,28,24.60
2015,09,13,03,29,20.60
2015,09,13,03,30,22.50
2015,09,13,03,31,23.60
2015,09,13,03,32,23.20
2015,09,13,03,33,22.20
2015,09,13,03,34,17.60
2015,09,13,03,35,18.10
2015,09,13,03,36,15.60
2015,09,13,03,37,21.40
2015,09,13,03,38,22.90
2015,09,13,03,39,21.80
2015,09,13,03,40,17.80
2015,09,13,03,41,16.40
2015,09,13,03,42,18.30
2015,09,13,03,43,19.50
2015,09,13,03,44,17.40
2015,09,13,03,45,20.80
2015,09,13,03,46,21.00
2015,09,13,03,47,19.80
2015,09,13,03,48,19.40
2015,09,13,03,49,20.40
2015,09,13,03,50,19.20
2015,09,13,03,51,16.30
2015,09,13,03,52,17.60
2015,09,13,03,53,20.00
2015,09,13,03,54,22.80
2015,09,13,03,55,19.00
2015,09,13,03,56,22.80
2015,09,13,03,57,23.50
2015,09,13,03,58,20.20
2015,09,13,03,59,23.20
2015,09,13,04,00,25.80
2015,09,13,04,01,22.20
2015,09,13,04,02,19.20
2015,09,13,04,03,18.20
2015,09,13,04,04,19.80
2015,09,13,04,05,23.70
2015,09,13,04,06,27.70
2015,09,13,04,07,23.00
2015,09,13,04,08,18.50
2015,09,13,04,09,24.30
2015,09,13,04,10,21.20
2015,09,13,04,11,21.90
2015,09,13,04,12,24.90
2015,09,13,04,13,21.00
2015,09,13,04,14,19.40
2015,09,13,04,15,23.30
2015,09,13,04,16,19.40
2015,09,13,04,17,23.20
2015,09,13,04,18,22.40
2015,09,13,04,19,22.10
2015,09,13,04,20,24.50
2015,09,13,04,21,27.70
2015,09,13,04,22,29.10
2015,09,13,04,23,23.30
2015,09,13,04,24,27.20
2015,09,13,04,25,29.20
2015,09,13,04,26,25.90
2015,09,13,04,27,25.20
2015,09,13,04,28,27.50
2015,09,13,04,29,25.10
2015,09,13,04,30,21.10
2015,09,13,04,31,25.10
2015,09,13,04,32,20.70
2015,09,13,04,33,23.80
2015,09,13,04,34,20.30
2015,09,13,04,35,21.00
2015,09,13,04,36,26.00
2015,09,13,04,37,18.40
2015,09,13,04,38,20.70
2015,09,13,04,39,22.30
2015,09,13,04,40,24.60
2015,09,13,04,41,16.90
2015,09,13,04,42,21.30
2015,09,13,04,43,18.40
2015,09,13,04,44,20.80
2015,09,13,04,45,21.20
2015,09,13,04,46,15.30
2015,09,13,04,47,18.90
2015,09,13,04,48,22.20
2015,09,13,04,49,17.80
2015,09,13,04,50,20.30
2015,09,13,04,51,21.50
2015,09,13,04,52,17.00
2015,09,13,04,53,19.20
2015,09,13,04,54,20.40
2015,09,13,04,55,14.70
2015,09,13,04,56,20.30
2015,09,13,04,57,19.00
2015,09,13,04,58,19.60
2015,09,13,04,59,20.70
2015,09,13,05,00,21.20
2015,09,13,05,01,17.30
2015,09,13,05,02,20.90
2015,09,13,05,03,19.80
2015,09,13,05,04,18.20
2015,09,13,05,05,17.80
2015,09,13,05,06,14.80
2015,09,13,05,07,22.90
2015,09,13,05,08,22.00
2015,09,13,05,09,18.50
2015,09,13,05,10,21.20
2015,09,13,05,11,18.60
2015,09,13,05,12,19.10
2015,09,13,05,13,20.40
2015,09,13,05,14,19.70
2015,09,13,05,15,17.60
2015,09,13,05,16,19.70
2015,09,13,05,17,18.20
2015,09,13,05,18,18.80
2015,09,13,05,19,14.60
2015,09,13,05,20,20.30
2015,09,13,05,21,18.10
2015,09,13,05,22,18.70
2015,09,13,05,23,18.60
2015,09,13,05,24,16.90
2015,09,13,05,25,22.10
2015,09,13,05,26,19.00
2015,09,13,05,27,17.80
2015,09,13,05,28,20.40
2015,09,13,05,29,19.60
2015,09,13,05,30,21.00
2015,09,13,05,31,21.80
2015,09,13,05,32,18.30
2015,09,13,05,33,18.90
2015,09,13,05,34,20.90
2015,09,13,05,35,17.10
2015,09,13,05,36,17.00
2015,09,13,05,37,17.50
2015,09,13,05,38,17.90
2015,09,13,05,39,19.80
2015,09,13,05,40,18.50
2015,09,13,05,41,15.40
2015,09,13,05,42,17.20
2015,09,13,05,43,14.60
2015,09,13,05,44,14.70
2015,09,13,05,45,12.90
2015,09,13,05,46,14.90
2015,09,13,05,47,18.70
2015,09,13,05,48,16.40
2015,09,13,05,49,19.50
2015,09,13,05,50,23.50
2015,09,13,05,51,19.10
2015,09,13,05,52,19.80
2015,09,13,05,53,17.50
2015,09,13,05,54,17.50
2015,09,13,05,55,16.60
2015,09,13,05,56,17.90
2015,09,13,05,57,22.30
2015,09,13,05,58,21.10
2015,09,13,05,59,18.30
2015,09,13,06,00,18.70
2015,09,13,06,01,18.10
2015,09,13,06,02,20.40
2015,09,13,06,03,18.50
2015,09,13,06,04,22.30
2015,09,13,06,05,22.90
2015,09,13,06,06,21.80
2015,09,13,06,07,19.20
2015,09,13,06,08,19.60
2015,09,13,06,09,15.90
2015,09,13,06,10,18.40
2015,09,13,06,11,18.00
2015,09,13,06,12,21.60
2015,09,13,06,13,18.70
2015,09,13,06,14,18.60
2015,09,13,06,15,14.40
2015,09,13,06,16,20.00
2015,09,13,06,17,15.20
2015,09,13,06,18,15.40
2015,09,13,06,19,16.20
2015,09,13,06,20,17.40
2015,09,13,06,21,16.80
2015,09,13,06,22,20.30
2015,09,13,06,23,21.10
2015,09,13,06,24,17.50
2015,09,13,06,25,14.60
2015,09,13,06,26,17.80
2015,09,13,06,27,15.60
2015,09,13,06,28,14.50
2015,09,13,06,29,16.00
2015,09,13,06,30,19.50
2015,09,13,06,31,18.00
2015,09,13,06,32,19.80
2015,09,13,06,33,20.30
2015,09,13,06,34,22.00
2015,09,13,06,35,21.30
2015,09,13,06,36,16.10
2015,09,13,06,37,18.50
2015,09,13,06,38,20.80
2015,09,13,06,39,20.30
2015,09,13,06,40,17.10
2015,09,13,06,41,19.50
2015,09,13,06,42,16.60
2015,09,13,06,43,16.40
2015,09,13,06,44,15.90
2015,09,13,06,45,15.70
2015,09,13,06,46,14.70
2015,09,13,06,47,13.40
2015,09,13,06,48,14.00
2015,09,13,06,49,20.90
2015,09,13,06,50,15.80
2015,09,13,06,51,15.10
2015,09,13,06,52,17.60
2015,09,13,06,53,16.30
2015,09,13,06,54,18.20
2015,09,13,06,55,18.30
2015,09,13,06,56,19.30
2015,09,13,06,57,20.70
2015,09,13,06,58,19.30
2015,09,13,06,59,16.90
2015,09,13,07,00,18.70
2015,09,13,07,01,16.70
2015,09,13,07,02,20.00
2015,09,13,07,03,18.10
2015,09,13,07,04,17.50
2015,09,13,07,05,15.90
2015,09,13,07,06,14.50
2015,09,13,07,07,13.00
2015,09,13,07,08,14.70
2015,09,13,07,09,14.20
2015,09,13,07,10,14.70
2015,09,13,07,11,17.70
2015,09,13,07,12,16.10
2015,09,13,07,13,16.60
2015,09,13,07,14,12.90
2015,09,13,07,15,15.50
2015,09,13,07,16,17.20
2015,09,13,07,17,16.00
2015,09,13,07,18,14.20
2015,09,13,07,19,14.50
2015,09,13,07,20,14.20
2015,09,13,07,21,14.20
2015,09,13,07,22,14.50
2015,09,13,07,23,15.90
2015,09,13,07,24,14.90
2015,09,13,07,25,15.70
2015,09,13,07,26,13.70
2015,09,13,07,27,13.10
2015,09,13,07,28,15.60
2015,09,13,07,29,16.40
2015,09,13,07,30,14.20
2015,09,13,07,31,16.10
2015,09,13,07,32,16.00
2015,09,13,07,33,15.70
2015,09,13,07,34,14.70
2015,09,13,07,35,14.60
2015,09,13,07,36,15.30
2015,09,13,07,37,17.50
2015,09,13,07,38,18.40
2015,09,13,07,39,14.80
2015,09,13,07,40,10.10
2015,09,13,07,41,10.50
2015,09,13,07,42,11.80
2015,09,13,07,43,13.80
2015,09,13,07,44,12.50
2015,09,13,07,45,13.40
2015,09,13,07,46,13.40
2015,09,13,07,47,12.60
2015,09,13,07,48,13.90
2015,09,13,07,49,12.60
2015,09,13,07,50,15.10
2015,09,13,07,51,11.00
2015,09,13,07,52,13.10
2015,09,13,07,53,16.60
2015,09,13,07,54,11.70
2015,09,13,07,55,12.30
2015,09,13,07,56,14.20
2015,09,13,07,57,14.70
2015,09,13,07,58,13.90
2015,09,13,07,59,15.70
2015,09,13,08,00,14.80
2015,09,13,08,01,14.70
2015,09,13,08,02,17.60
2015,09,13,08,03,19.40
2015,09,13,08,04,12.90
2015,09,13,08,05,11.80
2015,09,13,08,06,15.20
2015,09,13,08,07,17.80
2015,09,13,08,08,16.70
2015,09,13,08,09,16.50
2015,09,13,08,10,18.60
2015,09,13,08,11,15.20
2015,09,13,08,12,13.90
2015,09,13,08,13,14.20
2015,09,13,08,14,15.50
2015,09,13,08,15,16.70
2015,09,13,08,16,15.70
2015,09,13,08,17,15.70
2015,09,13,08,18,17.80
2015,09,13,08,19,16.10
2015,09,13,08,20,18.30
2015,09,13,08,21,16.40
2015,09,13,08,22,18.00
2015,09,13,08,23,21.30
2015,09,13,08,24,20.80
2015,09,13,08,25,18.10
2015,09,13,08,26,18.70
2015,09,13,08,27,16.60
2015,09,13,08,28,15.80
2015,09,13,08,29,16.20
2015,09,13,08,30,19.80
2015,09,13,08,31,19.60
2015,09,13,08,32,19.40
2015,09,13,08,33,21.30
2015,09,13,08,34,18.50
2015,09,13,08,35,21.20
2015,09,13,08,36,22.40
2015,09,13,08,37,25.70
2015,09,13,08,38,21.20
2015,09,13,08,39,21.00
2015,09,13,08,40,26.50
2015,09,13,08,41,26.20
2015,09,13,08,42,22.90
2015,09,13,08,43,19.10
2015,09,13,08,44,18.50
2015,09,13,08,45,20.50
2015,09,13,08,46,19.30
2015,09,13,08,47,25.60
2015,09,13,08,48,25.80
2015,09,13,08,49,26.80
2015,09,13,08,50,28.00
2015,09,13,08,51,25.70
2015,09,13,08,52,20.90
2015,09,13,08,53,27.70
2015,09,13,08,54,33.80
2015,09,13,08,55,30.50
2015,09,13,08,56,33.90
2015,09,13,08,57,26.80
2015,09,13,08,58,28.20
2015,09,13,08,59,28.70
2015,09,13,09,00,23.50
2015,09,13,09,01,20.50
2015,09,13,09,02,22.50
2015,09,13,09,03,20.90
2015,09,13,09,04,25.10
2015,09,13,09,05,23.50
2015,09,13,09,06,18.90
2015,09,13,09,07,16.90
2015,09,13,09,08,25.80
2015,09,13,09,09,26.80
2015,09,13,09,10,30.60
2015,09,13,09,11,26.30
2015,09,13,09,12,24.20
2015,09,13,09,13,28.60
2015,09,13,09,14,25.00
2015,09,13,09,15,23.20
2015,09,13,09,16,26.70
2015,09,13,09,17,29.80
2015,09,13,09,18,22.60
2015,09,13,09,19,28.40
2015,09,13,09,20,23.60
2015,09,13,09,21,22.80
2015,09,13,09,22,24.70
2015,09,13,09,23,29.40
2015,09,13,09,24,26.40
2015,09,13,09,25,29.00
2015,09,13,09,26,23.00
2015,09,13,09,27,20.90
2015,09,13,09,28,24.20
2015,09,13,09,29,17.50
2015,09,13,09,30,15.90
2015,09,13,09,31,17.90
2015,09,13,09,32,20.70
2015,09,13,09,33,21.50
2015,09,13,09,34,32.80
2015,09,13,09,35,33.20
2015,09,13,09,36,28.00
2015,09,13,09,37,21.40
2015,09,13,09,38,19.90
2015,09,13,09,39,28.80
2015,09,13,09,40,29.60
2015,09,13,09,41,32.10
2015,09,13,09,42,39.40
2015,09,13,09,43,33.20
2015,09,13,09,44,33.40
2015,09,13,09,45,23.30
2015,09,13,09,46,23.80
2015,09,13,09,47,25.90
2015,09,13,09,48,34.90
2015,09,13,09,49,30.50
2015,09,13,09,50,27.70
2015,09,13,09,51,30.80
2015,09,13,09,52,27.00
2015,09,13,09,53,23.10
2015,09,13,09,54,26.50
2015,09,13,09,55,27.80
2015,09,13,09,56,30.90
2015,09,13,09,57,25.60
2015,09,13,09,58,26.50
2015,09,13,09,59,24.40
2015,09,13,10,00,23.80
2015,09,13,10,01,25.50
2015,09,13,10,02,19.40
2015,09,13,10,03,21.70
2015,09,13,10,04,27.70
2015,09,13,10,05,23.30
2015,09,13,10,06,32.50
2015,09,13,10,07,32.90
2015,09,13,10,08,29.20
2015,09,13,10,09,34.70
2015,09,13,10,10,23.20
2015,09,13,10,11,41.70
2015,09,13,10,12,31.60
2015,09,13,10,13,41.00
2015,09,13,10,14,35.20
2015,09,13,10,15,27.90
2015,09,13,10,16,35.40
2015,09,13,10,17,32.80
2015,09,13,10,18,36.10
2015,09,13,10,19,36.60
2015,09,13,10,20,30.80
2015,09,13,10,21,34.80
2015,09,13,10,22,23.10
2015,09,13,10,23,23.30
2015,09,13,10,24,28.20
2015,09,13,10,25,33.50
2015,09,13,10,26,33.40
2015,09,13,10,27,26.30
2015,09,13,10,28,25.80
2015,09,13,10,29,22.40
2015,09,13,10,30,31.70
2015,09,13,10,31,27.40
2015,09,13,10,32,32.50
2015,09,13,10,33,28.00
2015,09,13,10,34,32.50
2015,09,13,10,35,30.80
2015,09,13,10,36,33.90
2015,09,13,10,37,33.10
2015,09,13,10,38,26.90
2015,09,13,10,39,31.40
2015,09,13,10,40,35.20
2015,09,13,10,41,28.60
2015,09,13,10,42,26.60
2015,09,13,10,43,26.60
2015,09,13,10,44,29.00
2015,09,13,10,45,24.00
2015,09,13,10,46,23.30
2015,09,13,10,47,25.60
2015,09,13,10,48,24.70
2015,09,13,10,49,22.50
2015,09,13,10,50,25.50
2015,09,13,10,51,26.20
2015,09,13,10,52,20.30
2015,09,13,10,53,22.50
2015,09,13,10,54,38.80
2015,09,13,10,55,35.50
2015,09,13,10,56,28.90
2015,09,13,10,57,26.60
2015,09,13,10,58,23.80
2015,09,13,10,59,27.50
2015,09,13,11,00,32.30
2015,09,13,11,01,38.30
2015,09,13,11,02,29.30
2015,09,13,11,03,33.10
2015,09,13,11,04,34.80
2015,09,13,11,05,29.10
2015,09,13,11,06,29.60
2015,09,13,11,07,34.70
2015,09,13,11,08,27.00
2015,09,13,11,09,33.00
2015,09,13,11,10,33.80
2015,09,13,11,11,37.40
2015,09,13,11,12,35.40
2015,09,13,11,13,34.60
2015,09,13,11,14,33.90
2015,09,13,11,15,29.30
2015,09,13,11,16,28.40
2015,09,13,11,17,36.50
2015,09,13,11,18,37.70
2015,09,13,11,19,32.70
2015,09,13,11,20,27.40
2015,09,13,11,21,19.10
2015,09,13,11,22,17.00
2015,09,13,11,23,28.20
2015,09,13,11,24,21.80
2015,09,13,11,25,24.00
2015,09,13,11,26,19.90
2015,09,13,11,27,26.40
2015,09,13,11,28,25.30
2015,09,13,11,29,23.10
2015,09,13,11,30,24.10
2015,09,13,11,31,26.10
2015,09,13,11,32,18.40
2015,09,13,11,33,24.00
2015,09,13,11,34,20.40
2015,09,13,11,35,27.90
2015,09,13,11,36,29.30
2015,09,13,11,37,31.30
2015,09,13,11,38,22.20
2015,09,13,11,39,26.80
2015,09,13,11,40,24.30
2015,09,13,11,41,31.50
2015,09,13,11,42,28.40
2015,09,13,11,43,28.90
2015,09,13,11,44,28.30
2015,09,13,11,45,25.60
2015,09,13,11,46,19.40
2015,09,13,11,47,22.80
2015,09,13,11,48,24.70
2015,09,13,11,49,20.10
2015,09,13,11,50,33.00
2015,09,13,11,51,22.50
2015,09,13,11,52,25.20
2015,09,13,11,53,25.70
2015,09,13,11,54,31.40
2015,09,13,11,55,31.90
2015,09,13,11,56,20.40
2015,09,13,11,57,28.70
2015,09,13,11,58,30.10
2015,09,13,11,59,34.00
2015,09,13,12,00,33.30
2015,09,13,12,01,30.40
2015,09,13,12,02,24.60
2015,09,13,12,03,30.50
2015,09,13,12,04,23.70
2015,09,13,12,05,18.20
2015,09,13,12,06,38.60
2015,09,13,12,07,36.10
2015,09,13,12,08,26.60
2015,09,13,12,09,35.20
2015,09,13,12,10,28.90
2015,09,13,12,11,30.40
2015,09,13,12,12,31.80
2015,09,13,12,13,35.70
2015,09,13,12,14,36.20
2015,09,13,12,15,31.10
2015,09,13,12,16,22.10
2015,09,13,12,17,22.90
2015,09,13,12,18,21.60
2015,09,13,12,19,30.60
2015,09,13,12,20,26.60
2015,09,13,12,21,34.40
2015,09,13,12,22,26.50
2015,09,13,12,23,24.40
2015,09,13,12,24,33.60
2015,09,13,12,25,30.10
2015,09,13,12,26,27.50
2015,09,13,12,27,33.90
2015,09,13,12,28,27.60
2015,09,13,12,29,26.00
2015,09,13,12,30,26.00
2015,09,13,12,31,24.70
2015,09,13,12,32,22.10
2015,09,13,12,33,20.10
2015,09,13,12,34,25.90
2015,09,13,12,35,25.50
2015,09,13,12,36,27.30
2015,09,13,12,37,30.80
2015,09,13,12,38,34.30
2015,09,13,12,39,34.90
2015,09,13,12,40,28.10
2015,09,13,12,41,23.70
2015,09,13,12,42,22.50
2015,09,13,12,43,32.90
2015,09,13,12,44,27.80
2015,09,13,12,45,22.00
2015,09,13,12,46,24.50
2015,09,13,12,47,26.90
2015,09,13,12,48,21.90
2015,09,13,12,49,20.20
2015,09,13,12,50,27.50
2015,09,13,12,51,25.00
2015,09,13,12,52,21.20
2015,09,13,12,53,29.90
2015,09,13,12,54,30.20
2015,09,13,12,55,24.70
2015,09,13,12,56,19.40
2015,09,13,12,57,17.70
2015,09,13,12,58,16.70
2015,09,13,12,59,21.70
2015,09,13,13,00,26.10
2015,09,13,13,01,21.80
2015,09,13,13,02,20.00
2015,09,13,13,03,20.70
2015,09,13,13,04,22.80
2015,09,13,13,05,26.20
2015,09,13,13,06,16.30
2015,09,13,13,07,18.60
2015,09,13,13,08,26.60
2015,09,13,13,09,25.90
2015,09,13,13,10,33.50
2015,09,13,13,11,27.80
2015,09,13,13,12,24.30
2015,09,13,13,13,24.60
2015,09,13,13,14,26.90
2015,09,13,13,15,26.90
2015,09,13,13,16,31.30
2015,09,13,13,17,28.60
2015,09,13,13,18,26.10
2015,09,13,13,19,24.30
2015,09,13,13,20,26.90
2015,09,13,13,21,23.40
2015,09,13,13,22,21.20
2015,09,13,13,23,26.40
2015,09,13,13,24,25.80
2015,09,13,13,25,23.80
2015,09,13,13,26,27.30
2015,09,13,13,27,27.50
2015,09,13,13,28,28.80
2015,09,13,13,29,28.70
2015,09,13,13,30,32.40
2015,09,13,13,31,28.60
2015,09,13,13,32,34.50
2015,09,13,13,33,27.40
2015,09,13,13,34,26.80
2015,09,13,13,35,21.60
2015,09,13,13,36,29.40
2015,09,13,13,37,25.50
2015,09,13,13,38,25.00
2015,09,13,13,39,27.50
2015,09,13,13,40,27.00
2015,09,13,13,41,21.90
2015,09,13,13,42,21.60
2015,09,13,13,43,21.20
2015,09,13,13,44,28.50
2015,09,13,13,45,25.70
2015,09,13,13,46,24.40
2015,09,13,13,47,21.50
2015,09,13,13,48,22.70
2015,09,13,13,49,25.20
2015,09,13,13,50,19.20
2015,09,13,13,51,23.00
2015,09,13,13,52,26.20
2015,09,13,13,53,27.60
2015,09,13,13,54,26.90
2015,09,13,13,55,28.30
2015,09,13,13,56,25.10
2015,09,13,13,57,21.90
2015,09,13,13,58,23.50
2015,09,13,13,59,25.00
2015,09,13,14,00,27.30
2015,09,13,14,01,25.60
2015,09,13,14,02,26.90
2015,09,13,14,03,29.00
2015,09,13,14,04,25.10
2015,09,13,14,05,27.70
2015,09,13,14,06,20.10
2015,09,13,14,07,22.40
2015,09,13,14,08,24.20
2015,09,13,14,09,34.40
2015,09,13,14,10,27.20
2015,09,13,14,11,26.00
2015,09,13,14,12,21.60
2015,09,13,14,13,23.30
2015,09,13,14,14,19.50
2015,09,13,14,15,28.80
2015,09,13,14,16,28.40
2015,09,13,14,17,34.00
2015,09,13,14,18,17.90
2015,09,13,14,19,21.20
2015,09,13,14,20,20.60
2015,09,13,14,21,24.20
2015,09,13,14,22,25.60
2015,09,13,14,23,34.40
2015,09,13,14,24,31.80
2015,09,13,14,25,30.70
2015,09,13,14,26,37.70
2015,09,13,14,27,27.20
2015,09,13,14,28,29.00
2015,09,13,14,29,30.90
2015,09,13,14,30,31.20
2015,09,13,14,31,26.90
2015,09,13,14,32,30.30
2015,09,13,14,33,33.60
2015,09,13,14,34,33.70
2015,09,13,14,35,30.00
2015,09,13,14,36,22.30
2015,09,13,14,37,29.20
2015,09,13,14,38,29.50
2015,09,13,14,39,29.00
2015,09,13,14,40,29.30
2015,09,13,14,41,23.90
2015,09,13,14,42,31.80
2015,09,13,14,43,24.00
2015,09,13,14,44,22.90
2015,09,13,14,45,26.50
2015,09,13,14,46,20.50
2015,09,13,14,47,20.40
2015,09,13,14,48,21.80
2015,09,13,14,49,27.60
2015,09,13,14,50,25.20
2015,09,13,14,51,29.40
2015,09,13,14,52,34.00
2015,09,13,14,53,32.70
2015,09,13,14,54,30.50
2015,09,13,14,55,28.00
2015,09,13,14,56,29.40
2015,09,13,14,57,26.20
2015,09,13,14,58,25.00
2015,09,13,14,59,25.10
2015,09,13,15,00,33.80
2015,09,13,15,01,31.40
2015,09,13,15,02,29.30
2015,09,13,15,03,25.70
2015,09,13,15,04,21.80
2015,09,13,15,05,17.20
2015,09,13,15,06,19.40
2015,09,13,15,07,15.60
2015,09,13,15,08,23.10
2015,09,13,15,09,27.50
2015,09,13,15,10,29.00
2015,09,13,15,11,25.00
2015,09,13,15,12,19.80
2015,09,13,15,13,28.00
2015,09,13,15,14,26.60
2015,09,13,15,15,26.50
2015,09,13,15,16,23.30
2015,09,13,15,17,26.80
2015,09,13,15,18,16.70
2015,09,13,15,19,22.80
2015,09,13,15,20,18.80
2015,09,13,15,21,14.00
2015,09,13,15,22,28.20
2015,09,13,15,23,25.50
2015,09,13,15,24,32.50
2015,09,13,15,25,29.80
2015,09,13,15,26,30.10
2015,09,13,15,27,32.10
2015,09,13,15,28,21.20
2015,09,13,15,29,21.20
2015,09,13,15,30,32.60
2015,09,13,15,31,31.30
2015,09,13,15,32,32.80
2015,09,13,15,33,25.80
2015,09,13,15,34,33.80
2015,09,13,15,35,28.30
2015,09,13,15,36,25.90
2015,09,13,15,37,24.60
2015,09,13,15,38,32.10
2015,09,13,15,39,28.20
2015,09,13,15,40,27.20
2015,09,13,15,41,31.80
2015,09,13,15,42,28.30
2015,09,13,15,43,26.90
2015,09,13,15,44,30.40
2015,09,13,15,45,32.10
2015,09,13,15,46,28.00
2015,09,13,15,47,23.20
2015,09,13,15,48,23.40
2015,09,13,15,49,29.90
2015,09,13,15,50,33.20
2015,09,13,15,51,30.80
2015,09,13,15,52,28.60
2015,09,13,15,53,27.00
2015,09,13,15,54,20.20
2015,09,13,15,55,32.50
2015,09,13,15,56,22.20
2015,09,13,15,57,18.60
2015,09,13,15,58,17.80
2015,09,13,15,59,27.80
2015,09,13,16,00,29.00
2015,09,13,16,01,28.70
2015,09,13,16,02,25.90
2015,09,13,16,03,33.60
2015,09,13,16,04,22.50
2015,09,13,16,05,25.20
2015,09,13,16,06,24.10
2015,09,13,16,07,29.90
2015,09,13,16,08,26.70
2015,09,13,16,09,22.40
2015,09,13,16,10,16.10
2015,09,13,16,11,20.30
2015,09,13,16,12,21.70
2015,09,13,16,13,24.40
2015,09,13,16,14,28.10
2015,09,13,16,15,30.60
2015,09,13,16,16,28.90
2015,09,13,16,17,20.00
2015,09,13,16,18,26.50
2015,09,13,16,19,35.30
2015,09,13,16,20,23.80
2015,09,13,16,21,22.10
2015,09,13,16,22,22.10
2015,09,13,16,23,15.20
2015,09,13,16,24,18.60
2015,09,13,16,25,24.60
2015,09,13,16,26,14.30
2015,09,13,16,27,18.80
2015,09,13,16,28,20.10
2015,09,13,16,29,25.10
2015,09,13,16,30,14.00
2015,09,13,16,31,22.20
2015,09,13,16,32,14.60
2015,09,13,16,33,29.10
2015,09,13,16,34,22.50
2015,09,13,16,35,21.80
2015,09,13,16,36,21.80
2015,09,13,16,37,18.60
2015,09,13,16,38,13.60
2015,09,13,16,39,25.80
2015,09,13,16,40,27.70
2015,09,13,16,41,22.20
2015,09,13,16,42,19.50
2015,09,13,16,43,16.00
2015,09,13,16,44,14.50
2015,09,13,16,45,25.40
2015,09,13,16,46,23.30
2015,09,13,16,47,21.80
2015,09,13,16,48,25.10
2015,09,13,16,49,28.40
2015,09,13,16,50,25.00
2015,09,13,16,51,28.60
2015,09,13,16,52,29.70
2015,09,13,16,53,26.00
2015,09,13,16,54,25.50
2015,09,13,16,55,28.90
2015,09,13,16,56,19.80
2015,09,13,16,57,21.80
2015,09,13,16,58,23.50
2015,09,13,16,59,26.00
2015,09,13,17,00,30.30
2015,09,13,17,01,23.30
2015,09,13,17,02,25.00
2015,09,13,17,03,31.50
2015,09,13,17,04,30.00
2015,09,13,17,05,32.20
2015,09,13,17,06,32.70
2015,09,13,17,07,22.70
2015,09,13,17,08,23.60
2015,09,13,17,09,30.50
2015,09,13,17,10,26.50
2015,09,13,17,11,35.20
2015,09,13,17,12,30.70
2015,09,13,17,13,29.30
2015,09,13,17,14,23.20
2015,09,13,17,15,25.70
2015,09,13,17,16,33.60
2015,09,13,17,17,27.40
2015,09,13,17,18,19.90
2015,09,13,17,19,24.30